Overview Statistics Trail Chart Weather Telemetry Raw packets
 

This is the latest recevied weather packets stored in our database for station/object 9W2XPF-13. If no packets are shown the sender has not sent any weather packets the latest 10 day(s).

<< 65 66 67 68 69 70 71 >>
Time Temp. Humidity Pressure Rain* Wind** Luminosity Snow
1777697522 26.67° C 93% 1009.4 hPa 1.27 mm - - -
1777697402 26.67° C 94% 1009.1 hPa 1.27 mm - - -
1777697282 26.67° C 94% 1009.2 hPa 1.27 mm - - -
1777697162 26.67° C 94% 1009.2 hPa 1.27 mm - - -
1777697042 26.67° C 94% 1009 hPa 1.27 mm - - -
1777696922 26.67° C 94% 1009.2 hPa 1.27 mm - - -
1777696802 26.67° C 94% 1009.4 hPa 1.27 mm - - -
1777696682 26.11° C 95% 1009.2 hPa 1.27 mm - - -
1777696562 26.11° C 94% 1009.3 hPa 1.27 mm - - -
1777696442 26.11° C 94% 1009.4 hPa 1.27 mm - - -
1777696322 26.11° C 94% 1009.4 hPa 1.27 mm - - -
1777696202 26.11° C 94% 1009.5 hPa 1.27 mm - - -
1777696082 26.11° C 93% 1009.5 hPa 1.27 mm - - -
1777695962 26.11° C 93% 1009.4 hPa 1.02 mm - - -
1777695842 26.67° C 92% 1009.6 hPa 1.02 mm - - -
1777695722 26.67° C 92% 1009.9 hPa 0.51 mm - - -
1777695602 26.67° C 92% 1009.8 hPa 0.51 mm - - -
1777695482 26.67° C 92% 1009.5 hPa 0.25 mm - - -
1777695362 27.22° C 92% 1009.7 hPa 0.25 mm - - -
1777695242 27.22° C 90% 1009.7 hPa 0 mm - - -
1777695122 27.78° C 90% 1009.7 hPa 0 mm - - -
1777695002 27.78° C 88% 1009.7 hPa 0 mm - - -
1777694882 28.33° C 87% 1009.9 hPa 0 mm - - -
1777694762 29.44° C 85% 1009.9 hPa 0 mm - - -
1777694647 30° C 83% 1009.6 hPa 0 mm - - -

* Rain latest hour (hover to see other rain measurements)
** Current wind speed in m/s (hover to see current wind gust speed)